Change the Weather History Date:

Monday, March 3, 2014

  Actual Average Record
Temperature  
Mean Temperature 78 °F -  
Max Temperature 86 °F - - ()
Min Temperature 70 °F - - ()
Cooling Degree Days 13    
Growing Degree Days 28 (Base 50)    
Moisture  
Dew Point 70 °F    
Average Humidity 76    
Maximum Humidity 100    
Minimum Humidity 52    
Precipitation  
Precipitation 0.00 in - - ()
Sea Level Pressure  
Sea Level Pressure 30.01 in    
Wind  
Wind Speed 1 mph ()    
Max Wind Speed 12 mph    
Max Gust Speed -    
Visibility 9.9 miles    
Events      
T = Trace of Precipitation, MM = Missing Value Source: Averaged Metar Reports

Daily Weather History Graph

Daily Weather History Graph

Search for Another Location

Airport or City:

Trip Planner

Search our weather history database for the weather conditions in past years. The results will help you decide how hot, cold, wet, or windy it might be!

Date:

Astronomy

Mar. 03, 2014 Rise Set
Actual Time 7:07 AM EAT 7:19 PM EAT
Civil Twilight 6:46 AM EAT 7:39 PM EAT
Nautical Twilight 6:22 AM EAT 8:04 PM EAT
Astronomical Twilight 5:58 AM EAT 8:28 PM EAT
Moon 8:47 AM EAT (3/3) 9:07 PM EAT (3/3)
Length of Visible Light 12h 53m
Length of Day
12h 11m
Waxing Crescent, 6% of the Moon is Illuminated
Mar 3
Waxing Crescent
Mar 8
First Quarter
Mar 16
Full
Mar 24
Last Quarter
Mar 30
New

Hourly Weather History & Observations

Time (EAT) Temp. Heat Index Dew Point Humidity Pressure Visibility Wind Dir Wind Speed Gust Speed Precip Events Conditions
12:00 AM 74 °F - 71 °F 89%  in 19 mi Calm Calm - -   Scattered Clouds
12:00 AM 75.2 °F - 71.6 °F 89% 30.01 in 6.2 mi Calm Calm - N/A   Partly Cloudy
1:00 AM 73.4 °F - 71.6 °F 94% 30.01 in 6.2 mi Calm Calm - N/A   Partly Cloudy
2:00 AM 73.4 °F - 69.8 °F 88% 30.01 in 6.2 mi Calm Calm - N/A   Partly Cloudy
3:00 AM 72 °F - 69 °F 87%  in 19 mi Calm Calm - -   Scattered Clouds
3:00 AM 71.6 °F - 68.0 °F 88% 30.01 in 6.2 mi Calm Calm - N/A   Partly Cloudy
4:00 AM 71.6 °F - 68.0 °F 88% 30.01 in 6.2 mi Calm Calm - N/A   Partly Cloudy
6:00 AM 71 °F - 67 °F 84%  in 19 mi Calm Calm - -   Scattered Clouds
6:00 AM 69.8 °F - 68.0 °F 94% 30.01 in 6.2 mi Calm Calm - N/A   Scattered Clouds
7:00 AM 69.8 °F - 68.0 °F 94% 30.04 in 6.2 mi Calm Calm - N/A   Scattered Clouds
8:00 AM 71.6 °F - 68.0 °F 88% 30.04 in 6.2 mi Calm Calm - N/A   Scattered Clouds
9:00 AM 69 °F - 69 °F 100%  in 19 mi Calm Calm - -   Scattered Clouds
10:00 AM 80.6 °F 83.9 °F 69.8 °F 70% 30.09 in 6.2 mi Calm Calm - N/A   Scattered Clouds
11:00 AM 84.2 °F 88.4 °F 69.8 °F 62% 30.06 in 6.2 mi East 6.9 mph - N/A   Partly Cloudy
12:00 PM 85 °F - 70 °F 52%  in 19 mi South 6.9 mph - -   Scattered Clouds
12:00 PM 86.0 °F 90.4 °F 69.8 °F 58% 30.04 in 6.2 mi South 6.9 mph - N/A   Scattered Clouds
1:00 PM 86.0 °F 91.8 °F 71.6 °F 62% 30.04 in 6.2 mi South 10.4 mph - N/A   Scattered Clouds
2:00 PM 86.0 °F 90.4 °F 69.8 °F 58% 30.01 in 6.2 mi SSW 8.1 mph - N/A   Partly Cloudy
3:00 PM 78 °F - 71 °F 73%  in 19 mi Calm Calm - -   Scattered Clouds
3:00 PM 86.0 °F 90.4 °F 69.8 °F 58% 29.98 in 6.2 mi South 11.5 mph - N/A   Scattered Clouds
4:00 PM 86.0 °F 91.8 °F 71.6 °F 62% 29.95 in 6.2 mi Calm Calm - N/A   Partly Cloudy
6:00 PM 83 °F - 69 °F 54%  in 19 mi South 8.1 mph - -   Scattered Clouds
6:00 PM 84.2 °F 88.4 °F 69.8 °F 62% 29.95 in 6.2 mi South 8.1 mph - N/A   Scattered Clouds
8:00 PM 78.8 °F - 68.0 °F 69% 29.95 in 6.2 mi Calm Calm - N/A   Scattered Clouds
9:00 PM 78 °F - 71 °F 73%  in 19 mi Calm Calm - -   Scattered Clouds
9:00 PM 78.8 °F - 71.6 °F 78% 29.95 in 6.2 mi Calm Calm - N/A   Scattered Clouds
10:00 PM 77.0 °F - 69.8 °F 78% 29.98 in 6.2 mi Calm Calm - N/A   Partly Cloudy
11:00 PM 75.2 °F - 69.8 °F 83% 29.98 in 6.2 mi Calm Calm - N/A   Partly Cloudy